Weather History for CYQZ - October, 2012

Change the Weather History Date:

Wednesday, October 10, 2012

  Actual Average Record
Temperature  
Mean Temperature 39 °F -  
Max Temperature 50 °F 51 °F 68 °F (1996)
Min Temperature 28 °F 32 °F 23 °F (2008)
Degree Days  
Heating Degree Days 26    
Moisture  
Dew Point 31 °F    
Average Humidity 85    
Maximum Humidity 100    
Minimum Humidity 50    
Precipitation  
Precipitation 0.00 in - - ()
Sea Level Pressure  
Sea Level Pressure 30.05 in    
Wind  
Wind Speed 3 mph ()    
Max Wind Speed 16 mph    
Max Gust Speed 24 mph    
Visibility 6.3 miles    
Events Fog    
Averages and records for this station are not official NWS values.
T = Trace of Precipitation, MM = Missing Value Source: Averaged Metar Reports

Daily Weather History Graph

Daily Weather History Graph

Search for Another Location

Airport or City:

Trip Planner

Search our weather history database for the weather conditions in past years. The results will help you decide how hot, cold, wet, or windy it might be!

Date:

Astronomy

Oct. 10, 2012 Rise Set
Actual Time 7:28 AM PDT 6:24 PM PDT
Civil Twilight 6:53 AM PDT 6:58 PM PDT
Nautical Twilight 6:13 AM PDT 7:38 PM PDT
Astronomical Twilight 5:33 AM PDT 8:19 PM PDT
Moon 1:30 AM PDT (10/10) 4:04 PM PDT (10/10)
Length of Visible Light 12h 05m
Length of Day
10h 55m
Waning Crescent, 26% of the Moon is Illuminated
Oct 10
Waning Crescent
Oct 15
New
Oct 21
First Quarter
Oct 29
Full
Nov 6
Last Quarter

Hourly Weather History & Observations

Time (PDT) Temp. Windchill Dew Point Humidity Pressure Visibility Wind Dir Wind Speed Gust Speed Precip Events Conditions
12:00 AM 41.0 °F - 37.4 °F 87% 29.94 in 9.0 mi Calm Calm - N/A   Clear
1:00 AM 37.4 °F 34.9 °F 35.6 °F 93% 29.94 in 9.0 mi NW 3.5 mph - N/A   Clear
2:00 AM 37.4 °F - 33.8 °F 87% 29.95 in 9.0 mi Calm Calm - N/A   Clear
3:00 AM 33.8 °F - 33.8 °F 100% 29.96 in 9.0 mi Calm Calm - N/A   Clear
3:47 AM 33.8 °F - 32.0 °F 93% 29.97 in 5.0 mi NW 2.3 mph - N/A   Clear
3:48 AM 32.0 °F - 32.0 °F 100% 29.97 in 2.5 mi NW 2.3 mph - N/A   Clear
4:00 AM 33.8 °F - 33.8 °F 100% 29.97 in 0.5 mi Calm Calm - N/A Fog Fog
4:09 AM 32.0 °F - 32.0 °F 100% 29.97 in 3.0 mi Calm Calm - N/A   Clear
4:10 AM 32.0 °F - 32.0 °F 100% 29.97 in 7.0 mi Calm Calm - N/A   Clear
5:00 AM 32.0 °F - 32.0 °F 100% 29.98 in 9.0 mi Calm Calm - N/A   Clear
5:12 AM 30.2 °F - 30.2 °F 100% 29.99 in 9.0 mi North 2.3 mph - N/A   Partly Cloudy
5:14 AM 32.0 °F - 30.2 °F 93% 29.99 in 2.5 mi NNW 2.3 mph - N/A   Partly Cloudy
5:27 AM 32.0 °F - 32.0 °F 100% 29.99 in 3.0 mi Calm Calm - N/A   Scattered Clouds
5:29 AM 32.0 °F - 32.0 °F 100% 29.99 in 6.0 mi Variable 2.3 mph - N/A   Scattered Clouds
5:43 AM 30.2 °F - 30.2 °F 100% 29.99 in 9.0 mi Calm Calm - N/A   Mostly Cloudy
5:50 AM 30.2 °F - 30.2 °F 100% 29.99 in 5.0 mi Calm Calm - N/A   Mostly Cloudy
6:00 AM 30.2 °F - 30.2 °F 100% 30.00 in 4.0 mi Calm Calm - N/A   Mostly Cloudy
6:02 AM 30.2 °F - 30.2 °F 100% 30.00 in 7.0 mi Calm Calm - N/A   Mostly Cloudy
6:16 AM 30.2 °F - 30.2 °F 100% 30.01 in 2.2 mi Variable 2.3 mph - N/A   Overcast
6:30 AM 30.2 °F - 30.2 °F 100% 30.01 in 2.0 mi NNE 2.3 mph - N/A   Scattered Clouds
6:49 AM 30.2 °F - 30.2 °F 100% 30.02 in 6.0 mi Calm Calm - N/A   Clear
7:00 AM 30.2 °F - 30.2 °F 100% 30.04 in 9.0 mi Calm Calm - N/A   Clear
7:03 AM 28.4 °F - 28.4 °F 100% 30.04 in 4.0 mi Calm Calm - N/A   Clear
7:04 AM 28.4 °F - 28.4 °F 100% 30.04 in 2.5 mi Calm Calm - N/A   Clear
7:16 AM 30.2 °F - 30.2 °F 100% 30.05 in 0.4 mi NNE 2.3 mph - N/A Fog Light Freezing Fog
7:29 AM 28.4 °F - 28.4 °F 100% 30.05 in 0.2 mi Variable 2.3 mph - N/A Fog Light Freezing Fog
7:52 AM 30.2 °F - 30.2 °F 100% 30.06 in 0.8 mi Variable 2.3 mph - N/A   Scattered Clouds
8:00 AM 30.2 °F 25.4 °F 30.2 °F 100% 30.07 in 2.2 mi NNE 4.6 mph - N/A   Partly Cloudy
8:01 AM 32.0 °F 28.7 °F 32.0 °F 100% 30.07 in 3.0 mi NNE 3.5 mph - N/A   Partly Cloudy
8:06 AM 30.2 °F 25.4 °F 30.2 °F 100% 30.07 in 6.0 mi NNW 4.6 mph - N/A   Partly Cloudy
9:00 AM 41.0 °F 36.4 °F 35.6 °F 81% 30.09 in 9.0 mi NNW 6.9 mph - N/A   Clear
10:00 AM 44.6 °F 38.8 °F 33.8 °F 66% 30.10 in 9.0 mi NNW 11.5 mph - N/A   Scattered Clouds
11:00 AM 46.4 °F 40.4 °F 33.8 °F 62% 30.10 in 9.0 mi NW 13.8 mph - N/A   Mostly Cloudy
12:00 PM 48.2 °F - 33.8 °F 58% 30.10 in 9.0 mi NW 9.2 mph - N/A   Overcast
1:00 PM 50.0 °F - 32.0 °F 50% 30.11 in 9.0 mi NW 15.0 mph - N/A   Mostly Cloudy
2:00 PM 46.4 °F 40.1 °F 30.2 °F 53% 30.14 in 9.0 mi NNW 15.0 mph - N/A   Overcast
3:00 PM 46.4 °F 40.1 °F 30.2 °F 53% 30.14 in 9.0 mi NW 15.0 mph 24.2 mph N/A   Overcast
4:00 PM 46.4 °F 40.1 °F 30.2 °F 53% 30.15 in 9.0 mi NNW 15.0 mph - N/A   Overcast
5:00 PM 46.4 °F 39.8 °F 28.4 °F 50% 30.16 in 9.0 mi NNW 16.1 mph 21.9 mph N/A   Overcast
6:00 PM 44.6 °F 39.7 °F 28.4 °F 53% 30.17 in 9.0 mi North 9.2 mph 17.3 mph N/A   Overcast
7:00 PM 41.0 °F 34.3 °F 26.6 °F 57% 30.17 in 9.0 mi NNW 11.5 mph - N/A   Clear
8:00 PM 41.0 °F 34.3 °F 24.8 °F 53% 30.17 in 9.0 mi NW 11.5 mph - N/A   Clear
9:00 PM 39.2 °F 33.0 °F 26.6 °F 61% 30.16 in 9.0 mi NW 9.2 mph - N/A   Clear
10:00 PM 37.4 °F 30.8 °F 24.8 °F 60% 30.17 in 9.0 mi NW 9.2 mph - N/A   Clear
11:00 PM 35.6 °F 30.7 °F 24.8 °F 65% 30.17 in 9.0 mi NNW 5.8 mph - N/A   Clear